www.pogodaiklimat.ru

Погода и климат >> Архив погоды >> Россия >> Якутия >> Сеген-Кюель


АРХИВ ПОГОДЫ в Сеген-Кюеле

Время (UTC), дата Ветер
(напр.,м/с)
 
Видим.   Явления Облачность Т
(С)
Тd
(С)
f
(%)
Тe
(С)
Тes
(С)
Комфортность P
(гПа)
Po
(гПа)
Тmin
(С)
Tmax
(С)
R
(мм)
R24
(мм)
S
(см)
21 18.08 СВ 1 50 км 10/4 1000 м
[Sc Ac trans Cs]
+13.0 +9.1 77 +13 +13 1017.0 992.2
00 19.08 штиль 0 50 км 10/4 1000 м
[Cb cap Ac trans Cs]
+14.8 +10.6 76 +15 +16 1017.6 992.8 +11.2 0.3
03 19.08 В 2 50 км 10/8 1000 м
[Cb cap As op]
+16.1 +10.5 69 +16 +16 1017.1 992.5
06 19.08 В 4 50 км 10/4 1000 м
[Cb cap As op]
+17.3 +8.3 55 +17 +17 1017.4 992.9
09 19.08 В 3 50 км 10/9 1000 м
[Cb cap As op]
+17.3 +8.6 57 +17 +17 1017.7 993.2
12 19.08 В 1 50 км 10/9 1000 м
[Cb cap As op]
+15.4 +9.0 66 +16 +16 1018.7 994.0 +17.7
15 19.08 В 2 50 км 10/8 1000 м
[Sc As op]
+15.1 +8.8 66 +15 +15 1018.7 993.9
18 19.08 В 1 50 км 10/8 1000 м
[Sc As op]
+14.7 +9.3 70 +15 +15 1018.9 994.1
21 19.08 В 1 50 км 10/8 1000 м
[Sc As op]
+14.3 +9.4 72 +15 +15 1018.9 994.0
00 20.08 СВ 1 50 км 10/8 1000 м
[Cb cap As op]
+14.8 +8.9 68 +15 +16 1018.6 993.8 +14.3
03 20.08 В 1 50 км 10/8 1000 м
[Cb cap As op]
+16.0 +8.1 59 +17 +17 1018.6 993.9
06 20.08 штиль 0 50 км 10/8 1000 м
[Sc As op]
+16.8 +8.6 58 +17 +17 1018.1 993.5
09 20.08 В 1 50 км 10/8 1000 м
[Sc As op]
+16.0 +9.9 67 +17 +17 1018.2 993.5
12 20.08 штиль 0 50 км 10/8 1000 м
[Sc As op]
+14.4 +10.4 77 +14 +14 1019.0 994.2 +17.1
15 20.08 штиль 0 20 км слаб. ливневой дождь 10/10 600 м
[Cb cap]
+12.8 +12.1 96 +12 +12 1019.6 994.6
18 20.08 СВ 1 10 км слаб. ливневой дождь 10/10 600 м
[Cb cap]
+12.2 +11.8 97 +12 +12 1020.3 995.3
21 20.08 штиль 0 10 км дождь {ливн. осадки} 10/4 600 м
[St As op]
+12.1 +11.7 97 +11 +12 1020.6 995.6
00 21.08 СВ 1 10 км морось {ливн. осадки, дождь} 10/8 600 м
[St As op]
+12.6 +12.0 96 +13 +13 1020.8 995.8 +11.9 7
03 21.08 С 1 50 км {морось} 10/8 600 м
[St As op]
+14.1 +12.6 91 +14 +15 1020.4 995.6
06 21.08 СВ 1 50 км {морось} 10/6 600 м
[St As op]
+15.7 +11.6 77 +16 +17 1019.6 994.9
09 21.08 СВ 1 50 км 9/9 1000 м
[Sc]
+16.1 +11.9 76 +17 +17 1018.9 994.3
12 21.08 С 1 50 км 9/9 1000 м
[Sc]
+14.3 +11.7 84 +15 +15 1018.8 994.0 +16.7 0.6
15 21.08 штиль 0 50 км 9/3 1000 м
[Sc Ac trans]
+11.0 +10.4 96 +10 +10 1018.6 993.5
18 21.08 штиль 0 50 км 3/1 1000 м
[Sc Ac trans Ci fib]
+5.8 +5.6 99 +5 +5 1018.9 993.3
21 21.08 штиль 0 50 км 9/9 1000 м
[Sc]
+7.6 +7.2 97 +7 +7 1018.9 993.5
00 22.08 штиль 0 50 км 9/9 1000 м
[Sc]
+13.2 +11.1 87 +13 +13 1018.2 993.3 +4.4
03 22.08 штиль 0 50 км 10/6 1000 м
[Sc Ac trans Ci fib]
+17.2 +12.1 72 +17 +19 1017.1 992.6
06 22.08 Ю 1 50 км 8/6 1000 м
[Sc diur, vesp Ci fib]
+20.3 +11.3 56 +23 +25 комфорт 1015.4 991.2
09 22.08 ЮЗ 1 50 км 6/3 1000 м
[Sc diur, vesp Ac trans]
+20.5 +11.1 55 +23 +24 комфорт 1014.7 990.5
12 22.08 штиль 0 50 км 5/0
[Ac trans Ci fib]
+13.7 +11.8 88 +13 +13 1015.3 990.5 +21.8
15 22.08 штиль 0 50 км 3/0
[Ac trans Ci fib]
+7.0 +6.3 95 +6 +6 1016.0 990.6
18 22.08 штиль 0 50 км 9/9 1000 м
[Sc]
+8.5 +7.9 96 +8 +8 1016.0 990.8
21 22.08 Ю 1 50 км 10/8 1000 м
[Cb cap Ac trans Ci fib]
+9.7 +9.1 96 +9 +9 1015.9 990.8
00 23.08 штиль 0 50 км 10/8 1000 м
[Sc Ac trans Ci fib]
+12.2 +10.7 91 +12 +12 1015.5 990.7 +6.6
03 23.08 штиль 0 50 км 8/3 1000 м
[Sc Ac trans Ci fib]
+20.8 +13.9 65 +23 +28 комфорт 1013.8 989.7
06 23.08 ЮЗ 1 50 км 10/8 1000 м
[Cb cap Ac trans Ci fib]
+21.1 +11.8 55 +23 +24 комфорт 1012.5 988.4
09 23.08 штиль 0 50 км 10/8 600 м
[Cb cap Ci fib]
+18.9 +12.7 67 +20 +20 1011.9 987.7
12 23.08 штиль 0 50 км 10/8 1000 м
[Cb cap Ci fib]
+15.0 +13.9 93 +15 +15 1012.3 987.7 +22.6
15 23.08 штиль 0 50 км в посл. час ливневой дождь 10/10 600 м
[Cb cap]
+13.4 +13.0 97 +13 +13 1012.4 987.6
18 23.08 штиль 0 10 км слаб. ливневой дождь 10/10 600 м
[Cb cap]
+13.0 +13.0 100 +12 +12 1011.8 987.2
21 23.08 штиль 0 50 км {ливн. осадки} 8/3 1000 м
[Cb cap Ci fib]
+11.8 +11.4 97 +11 +11 1011.8 987.0
00 24.08 штиль 0 50 км {ливн. осадки} 9/9 600 м
[St]
+15.2 +13.4 89 +15 +16 1011.4 986.9 +11.4 4
03 24.08 С 1 20 км слаб. ливневой дождь 10/10 600 м
[Cb cap]
+14.4 +13.1 92 +15 +15 1010.9 986.4
06 24.08 СВ 1 50 км {ливн. осадки} 9/5 1000 м
[Cb cap Ac trans Ci fib]
+18.0 +12.6 71 +19 +21 1009.1 984.9
09 24.08 штиль 0 50 км 10/4 1000 м
[Cb cap Ac trans Ci fib]
+17.1 +13.6 80 +17 +17 1008.7 984.4
12 24.08 В 2 50 км 9/9 600 м
[Cb cap]
+14.0 +12.0 88 +13 +13 1009.5 985.0 +18.5 2
15 24.08 штиль 0 50 км 3/0
[Ac trans Ci fib]
+9.4 +8.8 96 +8 +8 1009.2 984.2
18 24.08 штиль 0 20 км туман на расстоянии 1/0
[Ac trans]
+5.5 +5.0 97 +4 +4 1009.4 984.1
21 24.08 штиль 0 10 км туман на расстоянии ясно +5.6 +5.4 99 +4 +5 1009.6 984.3
00 25.08 штиль 0 20 км туман на расстоянии 9/8 1000 м
[St Ac trans]
+10.0 +9.6 97 +9 +10 1008.9 983.9 +4.0
03 25.08 ЮЗ 1 50 км 10/1 600 м
[Cu med, cong Ac trans]
+16.3 +12.3 77 +17 +20 1007.5 983.1
06 25.08 ЮЗ 1 50 км 8/3 600 м
[Cu med, cong Ac trans Ci fib]
+20.5 +12.1 59 +24 +26 комфорт 1005.6 981.7
09 25.08 ЮЗ 1 50 км 8/5 1000 м
[Sc diur, vesp Ac trans]
+18.6 +11.1 62 +20 +21 1005.6 981.5
12 25.08 штиль 0 50 км 8/3 1000 м
[Sc Ac trans Ci fib]
+11.8 +10.2 90 +11 +11 1006.6 981.9 +21.2
15 25.08 штиль 0 50 км 10/0
[Ac trans Ci fib]
+8.8 +8.4 97 +8 +8 1006.9 982.0
18 25.08 штиль 0 50 км 10/1 1000 м
[Sc Ac trans Ci fib]
+8.6 +8.0 96 +8 +8 1006.9 982.0

 

Местоположение метеостанции Сеген-Кюель (Якутия, Россия): широта 64.00 долгота 130.30 высота над уровнем моря 208 м.

В архиве по умолчанию представлена погода в Сеген-Кюеле за последнюю неделю. Архивные данные за месяц целиком и за предыдущие месяцы, начиная с января 2011 года, Вы можете получить, выбрав интересующий диапазон дат из раскрывающегося списка и нажав кнопку "Ввод!".


*Определитесь, кто Вы:
робот инопланетянин человек

Внимание! Время в таблицах - всемирное. Для получения местного времени необходимо прибавить поправку, которая равна 9 ч.

Смотрите также архив погоды в соседних городах и на ближайших метеорологических станциях:

Погода в Батамае (Якутия, Россия) (69 км)
Погода в Верхоянском Перевозе (Якутия, Россия) (113 км)
Погода в Сангаре (Якутия, Россия) (142 км)
Погода в Себян-Кюеле (Якутия, Россия) (145 км)
Погода в Намцах (Якутия, Россия) (147 км)
Погода в Сого-Хае (Якутия, Россия) (192 км)
Погода в Якутске (Якутия, Россия) (225 км)
Погода в Ытык-Кюёле (Якутия, Россия) (242 км)
Погода в Крест-Хальджае (Якутия, Россия) (243 км)
Погода в Чурапче (Якутия, Россия) (248 км)

Пояснения к столбцам:

Ветер - указаны скорость ветра в м/с - средняя за 10 мин, порывы в срок и между сроками (в фигурных скобках) и направление, откуда дует ветер: С - северный, СВ - северо-восточный, В - восточный, ЮВ - юго-восточный, Ю - южный, ЮЗ - юго-западный, З - западный, СЗ - северо-западный.
Видимость - горизонтальная дальность видимости в метрах или километрах. При видимости от 1 до 10 км при отсутствии осадков обычно наблюдается дымка, при ухудшении видимости до 1 км и менее - туман. В сухую погоду видимость может ухудшаться дымом, пылью или мглою.
Явления - указаны атмосферные явления, наблюдавшиеся в срок или в последний час перед сроком; фигурными скобками обозначены явления, наблюдавшиеся между сроками (за 1-3 часа до срока); квадратными скобками обозначены град или гололедные отложения с указанием их диаметра в мм.
Облачность - указаны через наклонную черту общая и нижняя облачность в баллах и высота нижней границы облаков в метрах; квадратными скобками обозначены формы облаков: Ci - перистые, Cs - перисто-слоистые, Cc - перисто-кучевые, Ac - высококучевые, As - высокослоистые, Sc - слоисто-кучевые, Ns - слоисто-дождевые, Cu - кучевые, Cb - кучево-дождевые. Подробнее классификацию облаков см. в Атласе облаков (PDF).
T - Температура воздуха - температура, измеренная на высоте 2 м над землей.
Td - Температура точки росы - температура, при понижении до которой содержащийся в воздухе водяной пар достигнет насыщения.
f - Относительная влажность воздуха - влажноcть воздуха, измеренная на высоте 2 м над землей.
Te - Эффективная температура - температура, которую ощущает одетый по сезону человек в тени. Характеристика душности погоды. При расчете учитывается влияние влажности воздуха и скорости ветра на теплоощущения человека.
Tes - Эффективная температура на солнце - температура, которую ощущает человек, с поправкой на солнечный нагрев. Характеристика знойности погоды. Зависит от высоты солнца над горизонтом, облачности и скорости ветра. Ночью, в пасмурную погоду, а также при ветре 12 м/с и более поправка равна нулю.
P - Атмосферное давление - приведенное к уровню моря атмосферное давление.
Po - Атмосферное давление - измеренное на уровне метеостанции атмосферное давление.
Tmin - Минимальная температура - минимум температуры воздуха на высоте 2 м над землей.
Tmax - Максимальная температура - максимум температуры воздуха на высоте 2 м над землей.
R - Количество осадков - Количество выпавших осадков за период времени, мм. При наведении курсора мыши на число - период времени, за который выпало указанное количество осадков.
R24 - Количество осадков - Количество выпавших осадков за 24 часа, мм.
S - Снежный покров - Высота снежного покрова, см. При наведении курсора мыши на число - состояние снежного покрова и степень покрытия местности в баллах.